Location: Wien
(48.2082°N, 16.3738°E)
Time: 05:20:10
(UTC+02:00)

EO-79 - Pass Details

Date: 31 March 2019
Orbit: 592 x 610 km, 97.9° (Epoch: 13 October)

Event Time Altitude Azimuth Distance (km) Brightness Sun altitude
Rises 01:21:12 0° 4° (N) 2,883 ? -34.8°
Reaches altitude 10° 01:23:35 10° 354° (N) 1,976 ? -34.6°
Enters shadow 01:24:27 15° 347° (NNW) 1,675 ? -34.6°
